GEOSAT

Satellite information

Favourite Embed

Satellite Type and Status

PAYLOADIN ORBIT

Key statistics

Satellite GEOSAT at a glance.

Uptime

14665

Days in orbit

Revolutions

≈ 14.4

Per day

Orbit

SSO

Sun Synchronous Orbit

Inclination

108.1

Latest

Satellite identification and parameters

Extended collection of information and parameters for GEOSAT.

Object identification

Identified? True

Debris? False

Object name: GEOSAT

International designator: 1985-021A

Object number (NORAD): 15595

Object ID (CCSDS): 15595

Country: UNITED STATES OF AMERICA (US)

Current information (Y/N): Y

RCS size: LARGE

Orbital parameters

Period: 100.024 minutes

Inclination: 108.0589 deg

SMA: 7137.77 km

Apoapsis: 760.631 km

Periapsis: 758.639 km

RAAN: 315.042 deg

Eccentricy: 0.0001395

Argument of periapsis: 275.8531 deg

Mean anomaly: 84.2451 deg

Mean motion: 14.3965664 rev/day

Mean motion (dot): 0.00000321 rev/day2

B* drag term: 0.00014586 1/REarth

Two-line elements (TLE)

Creation date: May 7, 2025, 3:14 a.m.

Reference frame: TEME

Reference center: EARTH

Epoch: May 6, 2025, 12:01 p.m. UTC

TLE line 0: 0 GEOSAT

TLE line 1: 1 15595U 85021A 25126.50089231 .00000321 00000-0 14586-3 0 9998

TLE line 2: 2 15595 108.0589 315.0420 0001395 275.8531 84.2451 14.39656640104230

Live tracking on map

Real-time ground track for satellite GEOSAT.

In-orbit conjunctions

A list of the most updated potential collisions computed for object GEOSAT.

Target Orbit TCA Probability of collision Miss distance Type
CZ-4 DEB SSO 2025-03-07 23:17:24 0.0004249297 438.0 (m) DEBRIS
TSX-5 LEO 2024-12-31 07:52:07 0.000102116 687.0 (m) PAYLOAD
COSMOS 2251 DEB LEO 2024-11-27 18:14:01 0.0004240009 800.0 (m) DEBRIS
FENGYUN 1C DEB SSO 2024-11-12 13:42:37 0.0001423216 58.0 (m) DEBRIS
CZ-6A DEB LEO 2024-10-14 20:52:20 0.0001059564 846.0 (m) DEBRIS

Associated space launch

Oceanographic radar altimetry satellite designed to obtain mapping of the Earth's geoid

GEOSAT was lifted into orbit during the mission ‘Atlas E/OIS | Geosat 1’, on board a Atlas E/OIS space rocket.

The launch took place on March 13, 1985, 2 a.m. from Space Launch Complex 3W.

For more information about the launch, click the button.

Launch to space Atlas E/OIS | Geosat 1
Atlas E/OIS | Geosat 1

Agency: N/A

Status: Launch Successful

Launch date: March 13, 1985, 2 a.m. UTC

Rocket: Atlas E/OIS

Launch pad: Space Launch Complex 3W

Location: Vandenberg SFB, CA, USA

...

Latest news about this satellite

There are no fresh news available about this satellite. Check back as we update our databases every day.


Newsletter sign-up

Weekly statistics, charts and insights to help you stay on top of the space industry.